CCA1025 ZPPP-ZGSZ

Flight info

Callsign CCA1025
Flight time 1h 32m
Altitude 37100
Route LXI A599 POU W7
Aircraft A321/M-VGDW/C

Departure

Time 2026-04-28 04:41
Airport Kunming Changshui International Airport (ZPPP)

Arrival

Time 2026-04-28 06:13
Airport Shenzhen Bao'an International Airport (ZGSZ)
Time Latitude Longitude Altitude Speed Heading
2026-04-28 04:12 25.11093 102.94077 6914 ft 2 kts 218°
2026-04-28 04:13 25.11102 102.94085 6914 ft 2 kts 218°
2026-04-28 04:13 25.11118 102.94099 6914 ft 0 kts 218°
2026-04-28 04:14 25.11127 102.94105 6914 ft 2 kts 188°
2026-04-28 04:14 25.11141 102.94102 6914 ft 2 kts 146°
2026-04-28 04:14 25.11147 102.94096 6914 ft 1 kts 121°
2026-04-28 04:14 25.11150 102.94092 6914 ft 0 kts 127°
2026-04-28 04:16 25.11147 102.94096 6913 ft 1 kts 127°
2026-04-28 04:17 25.11140 102.94106 6913 ft 2 kts 127°
2026-04-28 04:17 25.11129 102.94122 6913 ft 3 kts 127°
2026-04-28 04:17 25.11114 102.94144 6913 ft 4 kts 129°
2026-04-28 04:17 25.11092 102.94173 6913 ft 6 kts 129°
2026-04-28 04:18 25.11058 102.94219 6913 ft 8 kts 127°
2026-04-28 04:18 25.11023 102.94276 6913 ft 10 kts 123°
2026-04-28 04:18 25.10980 102.94343 6913 ft 11 kts 128°
2026-04-28 04:18 25.10952 102.94421 6913 ft 11 kts 72°
2026-04-28 04:19 25.11013 102.94484 6913 ft 12 kts 38°
2026-04-28 04:19 25.11084 102.94546 6913 ft 13 kts 39°
2026-04-28 04:19 25.11160 102.94613 6913 ft 14 kts 38°
2026-04-28 04:19 25.11241 102.94684 6913 ft 15 kts 38°
2026-04-28 04:20 25.11327 102.94757 6913 ft 15 kts 38°
2026-04-28 04:20 25.11415 102.94834 6913 ft 16 kts 39°
2026-04-28 04:20 25.11507 102.94916 6913 ft 17 kts 39°
2026-04-28 04:20 25.11596 102.94994 6913 ft 17 kts 38°
2026-04-28 04:21 25.11671 102.95058 6913 ft 17 kts 36°
2026-04-28 04:21 25.11770 102.95142 6913 ft 18 kts 38°
2026-04-28 04:21 25.11870 102.95231 6913 ft 18 kts 39°
2026-04-28 04:21 25.11971 102.95319 6913 ft 18 kts 38°
2026-04-28 04:22 25.12075 102.95409 6913 ft 18 kts 38°
2026-04-28 04:22 25.12178 102.95498 6913 ft 19 kts 38°
2026-04-28 04:22 25.12258 102.95568 6913 ft 9 kts 40°
2026-04-28 04:22 25.12286 102.95632 6913 ft 10 kts 95°
2026-04-28 04:23 25.12245 102.95699 6913 ft 11 kts 136°
2026-04-28 04:23 25.12188 102.95768 6913 ft 12 kts 128°
2026-04-28 04:23 25.12113 102.95802 6913 ft 13 kts 198°
2026-04-28 04:23 25.12020 102.95730 6913 ft 33 kts 218°
2026-04-28 04:24 25.11846 102.95577 6913 ft 74 kts 219°
2026-04-28 04:40 25.11672 102.95426 6913 ft 97 kts 218°
2026-04-28 04:40 25.10975 102.94817 6914 ft 155 kts 217°
2026-04-28 04:40 25.10002 102.93981 7089 ft 186 kts 218°
2026-04-28 04:41 25.09008 102.93129 7733 ft 185 kts 219°
2026-04-28 04:41 25.07990 102.92254 8355 ft 188 kts 219°
2026-04-28 04:41 25.06965 102.91364 8888 ft 191 kts 220°
2026-04-28 04:41 25.05882 102.90422 9098 ft 206 kts 220°
2026-04-28 04:42 25.04735 102.89414 9428 ft 215 kts 221°
2026-04-28 04:42 25.03543 102.88345 9691 ft 228 kts 221°
2026-04-28 04:42 25.02257 102.87225 9952 ft 242 kts 220°
2026-04-28 04:42 25.00895 102.86053 10292 ft 252 kts 221°
2026-04-28 04:43 24.99485 102.84840 10801 ft 256 kts 221°
2026-04-28 04:43 24.98086 102.83632 11319 ft 258 kts 221°
2026-04-28 04:43 24.96671 102.82408 11817 ft 260 kts 222°
2026-04-28 04:43 24.95155 102.81338 12278 ft 269 kts 205°
2026-04-28 04:44 24.93243 102.81108 12728 ft 286 kts 177°
2026-04-28 04:44 24.91334 102.81934 13151 ft 305 kts 148°
2026-04-28 04:44 24.89923 102.83719 13574 ft 317 kts 124°
2026-04-28 04:44 24.88799 102.85811 14002 ft 321 kts 124°
2026-04-28 04:45 24.87656 102.87935 14429 ft 324 kts 124°
2026-04-28 04:45 24.86479 102.90070 14881 ft 326 kts 125°
2026-04-28 04:45 24.85286 102.92195 15327 ft 328 kts 125°
2026-04-28 04:45 24.84075 102.94335 15541 ft 339 kts 125°
2026-04-28 04:46 24.82802 102.96582 15743 ft 350 kts 125°
2026-04-28 04:46 24.81493 102.98886 15942 ft 361 kts 125°
2026-04-28 04:46 24.80151 103.01269 16125 ft 372 kts 124°
2026-04-28 04:46 24.78905 103.03797 16299 ft 384 kts 118°
2026-04-28 04:47 24.77813 103.06544 16470 ft 395 kts 114°
2026-04-28 04:47 24.76822 103.09373 16634 ft 405 kts 112°
2026-04-28 04:47 24.75814 103.12312 16790 ft 415 kts 112°
2026-04-28 04:47 24.74776 103.15337 16941 ft 424 kts 112°
2026-04-28 04:48 24.73727 103.18378 17088 ft 433 kts 112°
2026-04-28 04:48 24.72653 103.21477 17262 ft 440 kts 112°
2026-04-28 04:48 24.71560 103.24631 17553 ft 443 kts 112°
2026-04-28 04:48 24.70441 103.27842 17925 ft 444 kts 112°
2026-04-28 04:49 24.69348 103.30979 18249 ft 446 kts 112°
2026-04-28 04:49 24.68232 103.34174 18603 ft 447 kts 112°
2026-04-28 04:49 24.67113 103.37376 18946 ft 449 kts 112°
2026-04-28 04:49 24.66001 103.40558 19248 ft 451 kts 112°
2026-04-28 04:50 24.64862 103.43811 19527 ft 453 kts 112°
2026-04-28 04:50 24.63737 103.47025 19836 ft 454 kts 112°
2026-04-28 04:50 24.62605 103.50259 20130 ft 456 kts 112°
2026-04-28 04:50 24.61459 103.53526 20436 ft 457 kts 112°
2026-04-28 04:51 24.60314 103.56789 20725 ft 459 kts 112°
2026-04-28 04:51 24.59177 103.60029 20999 ft 461 kts 112°
2026-04-28 04:51 24.58028 103.63304 21278 ft 462 kts 112°
2026-04-28 04:51 24.56856 103.66639 21556 ft 464 kts 112°
2026-04-28 04:52 24.55690 103.69947 21802 ft 466 kts 112°
2026-04-28 04:52 24.54592 103.73266 22054 ft 468 kts 110°
2026-04-28 04:52 24.53649 103.76688 22315 ft 470 kts 106°
2026-04-28 04:52 24.52862 103.80177 22550 ft 472 kts 104°
2026-04-28 04:53 24.52118 103.83682 22787 ft 474 kts 104°
2026-04-28 04:53 24.51374 103.87221 23055 ft 474 kts 104°
2026-04-28 04:53 24.50631 103.90752 23302 ft 476 kts 104°
2026-04-28 04:53 24.49888 103.94263 23553 ft 477 kts 104°
2026-04-28 04:54 24.49127 103.97846 23802 ft 479 kts 104°
2026-04-28 04:54 24.48374 104.01379 24026 ft 480 kts 104°
2026-04-28 04:54 24.47614 104.04931 24269 ft 482 kts 104°
2026-04-28 04:54 24.46849 104.08507 24511 ft 483 kts 104°
2026-04-28 04:55 24.46076 104.12112 24768 ft 484 kts 104°
2026-04-28 04:55 24.45310 104.15675 25005 ft 485 kts 104°
2026-04-28 04:55 24.44539 104.19263 25237 ft 486 kts 104°
2026-04-28 04:55 24.43755 104.22903 25484 ft 487 kts 104°
2026-04-28 04:56 24.42987 104.26473 25710 ft 488 kts 104°
2026-04-28 04:56 24.42199 104.30124 25930 ft 489 kts 104°
2026-04-28 04:56 24.41420 104.33738 26136 ft 491 kts 104°
2026-04-28 04:56 24.40626 104.37406 26343 ft 492 kts 104°
2026-04-28 04:57 24.39841 104.41029 26563 ft 493 kts 104°
2026-04-28 04:57 24.39041 104.44717 26764 ft 495 kts 104°
2026-04-28 04:57 24.38247 104.48374 26994 ft 495 kts 104°
2026-04-28 04:57 24.37458 104.52004 27285 ft 494 kts 104°
2026-04-28 04:58 24.36659 104.55681 27593 ft 493 kts 104°
2026-04-28 04:58 24.35871 104.59300 27890 ft 492 kts 104°
2026-04-28 04:58 24.35076 104.62944 28170 ft 491 kts 104°
2026-04-28 04:58 24.34287 104.66563 28463 ft 490 kts 104°
2026-04-28 04:59 24.33485 104.70228 28772 ft 489 kts 104°
2026-04-28 04:59 24.32693 104.73850 29057 ft 488 kts 104°
2026-04-28 04:59 24.31899 104.77471 29317 ft 488 kts 104°
2026-04-28 04:59 24.31117 104.81036 29590 ft 487 kts 104°
2026-04-28 05:00 24.30321 104.84656 29911 ft 486 kts 104°
2026-04-28 05:00 24.29539 104.88216 30238 ft 484 kts 104°
2026-04-28 05:00 24.28753 104.91795 30547 ft 483 kts 104°
2026-04-28 05:00 24.27962 104.95383 30868 ft 481 kts 104°
2026-04-28 05:01 24.27182 104.98916 31190 ft 479 kts 104°
2026-04-28 05:01 24.26406 105.02432 31499 ft 477 kts 104°
2026-04-28 05:01 24.25627 105.05960 31792 ft 475 kts 104°
2026-04-28 05:01 24.24858 105.09437 32060 ft 474 kts 104°
2026-04-28 05:02 24.24081 105.12949 32311 ft 473 kts 104°
2026-04-28 05:02 24.23301 105.16464 32557 ft 473 kts 104°
2026-04-28 05:02 24.22533 105.19920 32808 ft 471 kts 104°
2026-04-28 05:02 24.21744 105.23410 33051 ft 471 kts 104°
2026-04-28 05:03 24.20917 105.26857 33289 ft 470 kts 105°
2026-04-28 05:03 24.20073 105.30308 33529 ft 469 kts 105°
2026-04-28 05:03 24.19232 105.33745 33774 ft 469 kts 105°
2026-04-28 05:03 24.18393 105.37181 34006 ft 468 kts 105°
2026-04-28 05:04 24.17551 105.40636 34228 ft 467 kts 105°
2026-04-28 05:04 24.16725 105.44031 34412 ft 467 kts 105°
2026-04-28 05:04 24.15889 105.47471 34594 ft 467 kts 105°
2026-04-28 05:04 24.15051 105.50919 34800 ft 466 kts 105°
2026-04-28 05:05 24.14222 105.54332 35021 ft 465 kts 105°
2026-04-28 05:05 24.13399 105.57713 35211 ft 465 kts 105°
2026-04-28 05:05 24.12567 105.61134 35391 ft 464 kts 105°
2026-04-28 05:05 24.11733 105.64557 35558 ft 464 kts 105°
2026-04-28 05:06 24.10934 105.67824 35699 ft 463 kts 105°
2026-04-28 05:06 24.10142 105.71249 35823 ft 463 kts 103°
2026-04-28 05:06 24.09441 105.74709 35931 ft 464 kts 103°
2026-04-28 05:07 24.08072 105.81635 36099 ft 465 kts 102°
2026-04-28 05:07 24.06713 105.88502 36240 ft 466 kts 102°
2026-04-28 05:08 24.05329 105.95468 36402 ft 467 kts 102°
2026-04-28 05:08 24.03950 106.02391 36553 ft 468 kts 102°
2026-04-28 05:09 24.02570 106.09309 36697 ft 468 kts 102°
2026-04-28 05:09 24.01182 106.16245 36821 ft 468 kts 103°
2026-04-28 05:10 23.99786 106.23202 36927 ft 469 kts 103°
2026-04-28 05:10 23.98387 106.30157 36931 ft 471 kts 103°
2026-04-28 05:11 23.96982 106.37123 36935 ft 472 kts 103°
2026-04-28 05:11 23.95572 106.44102 36931 ft 471 kts 103°
2026-04-28 05:12 23.94138 106.51190 36936 ft 472 kts 103°
2026-04-28 05:12 23.92764 106.58170 36936 ft 472 kts 101°
2026-04-28 05:13 23.91945 106.65310 36938 ft 473 kts 95°
2026-04-28 05:13 23.91475 106.72448 36942 ft 473 kts 94°
2026-04-28 05:14 23.91011 106.79620 36949 ft 475 kts 94°
2026-04-28 05:14 23.90540 106.86770 36948 ft 474 kts 95°
2026-04-28 05:15 23.90056 106.93986 36943 ft 475 kts 95°
2026-04-28 05:15 23.89568 107.01164 36940 ft 475 kts 95°
2026-04-28 05:16 23.89077 107.08363 36940 ft 475 kts 95°
2026-04-28 05:16 23.88584 107.15535 36942 ft 474 kts 95°
2026-04-28 05:17 23.87841 107.26284 36936 ft 475 kts 95°
2026-04-28 05:17 23.87342 107.33446 36934 ft 476 kts 95°
2026-04-28 05:18 23.86836 107.40627 36934 ft 476 kts 95°
2026-04-28 05:18 23.86326 107.47822 36933 ft 477 kts 95°
2026-04-28 05:19 23.85813 107.55045 36934 ft 477 kts 95°
2026-04-28 05:19 23.85281 107.62462 36937 ft 477 kts 95°
2026-04-28 05:20 23.84745 107.69908 36943 ft 476 kts 95°
2026-04-28 05:20 23.84215 107.77258 36946 ft 476 kts 96°
2026-04-28 05:21 23.83680 107.84540 36938 ft 476 kts 96°
2026-04-28 05:21 23.83271 107.91816 36929 ft 477 kts 94°
2026-04-28 05:23 23.82733 108.03033 36924 ft 477 kts 94°
2026-04-28 05:23 23.82368 108.10274 36930 ft 476 kts 94°
2026-04-28 05:24 23.81995 108.17447 36936 ft 477 kts 94°
2026-04-28 05:24 23.81591 108.24680 36937 ft 478 kts 95°
2026-04-28 05:25 23.81178 108.31925 36943 ft 478 kts 95°
2026-04-28 05:25 23.80771 108.39114 36943 ft 478 kts 95°
2026-04-28 05:26 23.80359 108.46355 36944 ft 479 kts 94°
2026-04-28 05:26 23.79942 108.53608 36946 ft 478 kts 94°
2026-04-28 05:27 23.79528 108.60802 36947 ft 478 kts 95°
2026-04-28 05:27 23.79112 108.67947 36952 ft 480 kts 95°
2026-04-28 05:28 23.78686 108.75195 36946 ft 479 kts 95°
2026-04-28 05:28 23.78255 108.82491 36948 ft 481 kts 95°
2026-04-28 05:29 23.77822 108.89732 36944 ft 482 kts 95°
2026-04-28 05:29 23.77387 108.97005 36941 ft 481 kts 95°
2026-04-28 05:30 23.76950 109.04270 36928 ft 481 kts 95°
2026-04-28 05:30 23.76490 109.11530 36927 ft 480 kts 96°
2026-04-28 05:31 23.75502 109.18743 36926 ft 479 kts 103°
2026-04-28 05:31 23.74070 109.25823 36931 ft 480 kts 104°
2026-04-28 05:32 23.72620 109.32893 36930 ft 480 kts 104°
2026-04-28 05:32 23.71172 109.40002 36935 ft 480 kts 104°
2026-04-28 05:33 23.69724 109.47098 36942 ft 480 kts 104°
2026-04-28 05:33 23.68272 109.54216 36950 ft 481 kts 104°
2026-04-28 05:34 23.66811 109.61352 36958 ft 481 kts 104°
2026-04-28 05:34 23.65354 109.68456 36961 ft 481 kts 105°
2026-04-28 05:35 23.63885 109.75604 36959 ft 481 kts 105°
2026-04-28 05:35 23.62423 109.82709 36963 ft 481 kts 105°
2026-04-28 05:36 23.60955 109.89809 36962 ft 482 kts 105°
2026-04-28 05:36 23.59487 109.96896 36966 ft 481 kts 105°
2026-04-28 05:37 23.58010 110.04024 36980 ft 481 kts 105°
2026-04-28 05:37 23.56539 110.11095 36971 ft 481 kts 105°
2026-04-28 05:38 23.55057 110.18211 36964 ft 481 kts 105°
2026-04-28 05:38 23.53574 110.25314 36954 ft 481 kts 105°
2026-04-28 05:39 23.52084 110.32438 36955 ft 482 kts 105°
2026-04-28 05:39 23.50602 110.39562 36951 ft 482 kts 105°
2026-04-28 05:40 23.49157 110.46667 36952 ft 483 kts 104°
2026-04-28 05:40 23.47710 110.53801 36954 ft 483 kts 104°
2026-04-28 05:41 23.46259 110.60925 36958 ft 482 kts 104°
2026-04-28 05:41 23.44815 110.68005 36967 ft 483 kts 105°
2026-04-28 05:42 23.43337 110.75158 36971 ft 483 kts 105°
2026-04-28 05:42 23.41830 110.82278 36979 ft 482 kts 105°
2026-04-28 05:43 23.40320 110.89405 36979 ft 483 kts 105°
2026-04-28 05:43 23.38824 110.96481 36981 ft 483 kts 105°
2026-04-28 05:44 23.37319 111.03589 36987 ft 483 kts 105°
2026-04-28 05:44 23.35803 111.10729 36989 ft 483 kts 105°
2026-04-28 05:45 23.34303 111.17825 36988 ft 484 kts 105°
2026-04-28 05:45 23.32844 111.24970 36984 ft 483 kts 105°
2026-04-28 05:46 23.31393 111.32097 36985 ft 484 kts 105°
2026-04-28 05:46 23.29936 111.39210 36986 ft 484 kts 105°
2026-04-28 05:47 23.28474 111.46336 36977 ft 484 kts 105°
2026-04-28 05:47 23.27002 111.53471 36944 ft 482 kts 105°
2026-04-28 05:48 23.26257 111.57007 36658 ft 483 kts 105°
2026-04-28 05:48 23.25503 111.60558 36371 ft 480 kts 105°
2026-04-28 05:48 23.24753 111.64093 36081 ft 477 kts 105°
2026-04-28 05:48 23.24004 111.67629 35791 ft 475 kts 106°
2026-04-28 05:49 23.23271 111.71084 35506 ft 474 kts 106°
2026-04-28 05:49 23.22531 111.74573 35221 ft 474 kts 105°
2026-04-28 05:49 23.21782 111.78100 34934 ft 475 kts 105°
2026-04-28 05:49 23.21041 111.81584 34653 ft 475 kts 105°
2026-04-28 05:50 23.20298 111.85100 34371 ft 476 kts 105°
2026-04-28 05:50 23.19572 111.88572 34088 ft 476 kts 105°
2026-04-28 05:50 23.18834 111.92123 33799 ft 477 kts 105°
2026-04-28 05:50 23.18102 111.95647 33518 ft 477 kts 105°
2026-04-28 05:51 23.17377 111.99129 33240 ft 478 kts 105°
2026-04-28 05:51 23.16643 112.02654 32957 ft 478 kts 105°
2026-04-28 05:51 23.15906 112.06190 32692 ft 479 kts 105°
2026-04-28 05:51 23.15162 112.09747 32427 ft 480 kts 104°
2026-04-28 05:52 23.14426 112.13258 32165 ft 480 kts 104°
2026-04-28 05:52 23.13687 112.16792 31902 ft 479 kts 104°
2026-04-28 05:52 23.12950 112.20309 31517 ft 480 kts 104°
2026-04-28 05:52 23.12202 112.23875 30965 ft 481 kts 104°
2026-04-28 05:53 23.11458 112.27412 30299 ft 482 kts 104°
2026-04-28 05:53 23.10720 112.30925 29586 ft 482 kts 104°
2026-04-28 05:53 23.09971 112.34489 28809 ft 483 kts 104°
2026-04-28 05:53 23.09222 112.38043 28083 ft 483 kts 104°
2026-04-28 05:54 23.08476 112.41580 27304 ft 484 kts 104°
2026-04-28 05:54 23.07730 112.45155 26483 ft 485 kts 103°
2026-04-28 05:54 23.07125 112.48745 25748 ft 484 kts 99°
2026-04-28 05:54 23.06715 112.52354 25238 ft 478 kts 96°
2026-04-28 05:55 23.06451 112.55941 24718 ft 472 kts 94°
2026-04-28 05:55 23.06217 112.59500 24190 ft 467 kts 94°
2026-04-28 05:55 23.05989 112.63016 23680 ft 461 kts 94°
2026-04-28 05:55 23.05764 112.66470 23157 ft 457 kts 94°
2026-04-28 05:56 23.05536 112.69911 22628 ft 453 kts 94°
2026-04-28 05:56 23.05311 112.73279 22122 ft 448 kts 94°
2026-04-28 05:56 23.05084 112.76652 21613 ft 444 kts 94°
2026-04-28 05:56 23.04859 112.79975 21088 ft 441 kts 94°
2026-04-28 05:57 23.04632 112.83309 20543 ft 439 kts 95°
2026-04-28 05:57 23.04408 112.86576 19994 ft 437 kts 95°
2026-04-28 05:57 23.04183 112.89864 19446 ft 435 kts 95°
2026-04-28 05:57 23.03959 112.93102 18903 ft 433 kts 95°
2026-04-28 05:58 23.03733 112.96349 18357 ft 431 kts 95°
2026-04-28 05:58 23.03509 112.99576 17814 ft 429 kts 95°
2026-04-28 05:58 23.03285 113.02811 17269 ft 427 kts 95°
2026-04-28 05:58 23.03066 113.05978 16744 ft 425 kts 95°
2026-04-28 05:59 23.02843 113.09173 16207 ft 422 kts 95°
2026-04-28 05:59 23.02622 113.12322 15681 ft 420 kts 95°
2026-04-28 05:59 23.02397 113.15483 15152 ft 418 kts 96°
2026-04-28 05:59 23.01919 113.18578 14618 ft 414 kts 105°
2026-04-28 06:00 23.00974 113.21523 14089 ft 410 kts 116°
2026-04-28 06:00 22.99726 113.24263 13553 ft 407 kts 119°
2026-04-28 06:00 22.98418 113.26957 13025 ft 404 kts 120°
2026-04-28 06:00 22.97109 113.29638 12509 ft 401 kts 120°
2026-04-28 06:01 22.95814 113.32310 11991 ft 397 kts 119°
2026-04-28 06:01 22.94547 113.34947 11477 ft 394 kts 120°
2026-04-28 06:01 22.93306 113.37540 11089 ft 386 kts 119°
2026-04-28 06:01 22.92088 113.40094 10872 ft 373 kts 119°
2026-04-28 06:02 22.90913 113.42555 10695 ft 359 kts 119°
2026-04-28 06:02 22.89783 113.44923 10518 ft 347 kts 119°
2026-04-28 06:02 22.88530 113.47124 10237 ft 335 kts 135°
2026-04-28 06:02 22.86668 113.48471 10060 ft 313 kts 165°
2026-04-28 06:03 22.84605 113.48704 9944 ft 293 kts 186°
2026-04-28 06:03 22.82596 113.48503 9661 ft 287 kts 189°
2026-04-28 06:03 22.80587 113.48299 9267 ft 286 kts 187°
2026-04-28 06:03 22.78602 113.48161 8922 ft 284 kts 185°
2026-04-28 06:04 22.76656 113.48183 8813 ft 275 kts 171°
2026-04-28 06:04 22.74938 113.49067 8810 ft 277 kts 142°
2026-04-28 06:04 22.73784 113.50706 8687 ft 280 kts 116°
2026-04-28 06:04 22.73399 113.52796 8105 ft 292 kts 92°
2026-04-28 06:05 22.73802 113.54952 7582 ft 299 kts 63°
2026-04-28 06:05 22.75180 113.56622 7205 ft 297 kts 31°
2026-04-28 06:05 22.77111 113.57288 6839 ft 292 kts
2026-04-28 06:05 22.79141 113.57292 6483 ft 290 kts 358°
2026-04-28 06:06 22.81152 113.57304 6111 ft 289 kts
2026-04-28 06:06 22.83094 113.57786 5693 ft 289 kts 30°
2026-04-28 06:06 22.84516 113.59281 5312 ft 282 kts 61°
2026-04-28 06:06 22.85348 113.61154 5004 ft 277 kts 70°
2026-04-28 06:07 22.85963 113.63039 4692 ft 267 kts 83°
2026-04-28 06:07 22.86036 113.63707 4521 ft 261 kts 92°
2026-04-28 06:07 22.85728 113.65573 3975 ft 250 kts 116°
2026-04-28 06:07 22.84782 113.67094 3595 ft 236 kts 138°
2026-04-28 06:08 22.83467 113.68069 3258 ft 226 kts 153°
2026-04-28 06:08 22.82143 113.68945 2923 ft 218 kts 145°
2026-04-28 06:08 22.80922 113.69840 2604 ft 211 kts 148°
2026-04-28 06:08 22.79710 113.70612 2543 ft 188 kts 150°
2026-04-28 06:09 22.78786 113.71153 2496 ft 169 kts 151°
2026-04-28 06:09 22.77809 113.71702 2459 ft 148 kts 152°
2026-04-28 06:09 22.76892 113.72208 2426 ft 144 kts 151°
2026-04-28 06:09 22.76003 113.72697 2239 ft 145 kts 151°
2026-04-28 06:10 22.75094 113.73196 2047 ft 145 kts 151°
2026-04-28 06:10 22.74192 113.73689 1856 ft 145 kts 150°
2026-04-28 06:10 22.73289 113.74183 1665 ft 144 kts 150°
2026-04-28 06:10 22.72383 113.74680 1479 ft 145 kts 150°
2026-04-28 06:11 22.71472 113.75178 1289 ft 146 kts 150°
2026-04-28 06:11 22.70575 113.75671 1103 ft 146 kts 150°
2026-04-28 06:11 22.69658 113.76173 916 ft 146 kts 150°
2026-04-28 06:11 22.68760 113.76666 733 ft 146 kts 151°
2026-04-28 06:12 22.67838 113.77171 542 ft 146 kts 151°
2026-04-28 06:12 22.66930 113.77670 343 ft 144 kts 150°
2026-04-28 06:12 22.66038 113.78170 173 ft 143 kts 151°
2026-04-28 06:12 22.65151 113.78646 22 ft 135 kts 151°
2026-04-28 06:13 22.64431 113.79046 9 ft 78 kts 153°
2026-04-28 06:13 22.64177 113.79182 9 ft 18 kts 153°
2026-04-28 06:13 22.64067 113.79244 9 ft 16 kts 151°
2026-04-28 06:13 22.63968 113.79298 9 ft 15 kts 153°
2026-04-28 06:14 22.63892 113.79367 9 ft 13 kts 127°
2026-04-28 06:14 22.63839 113.79447 9 ft 12 kts 123°
2026-04-28 06:14 22.63795 113.79521 9 ft 11 kts 122°
2026-04-28 06:14 22.63755 113.79591 9 ft 10 kts 121°
2026-04-28 06:15 22.63714 113.79650 9 ft 9 kts 143°
2026-04-28 06:15 22.63658 113.79684 9 ft 8 kts 152°
2026-04-28 06:15 22.63605 113.79714 9 ft 8 kts 152°
2026-04-28 06:15 22.63554 113.79742 9 ft 7 kts 153°
2026-04-28 06:16 22.63504 113.79771 9 ft 8 kts 153°
2026-04-28 06:16 22.63438 113.79807 9 ft 12 kts 152°
2026-04-28 06:16 22.63354 113.79853 9 ft 14 kts 153°
2026-04-28 06:16 22.63255 113.79909 9 ft 16 kts 152°
2026-04-28 06:17 22.63196 113.79969 9 ft 10 kts 82°
2026-04-28 06:17 22.63227 113.80042 9 ft 11 kts 64°
2026-04-28 06:17 22.63263 113.80119 9 ft 11 kts 63°
2026-04-28 06:18 22.63267 113.80195 9 ft 6 kts 153°
2026-04-28 06:18 22.63260 113.80199 9 ft 0 kts 155°
2026-04-28 06:18 22.63254 113.80201 9 ft 1 kts 154°
2026-04-28 06:18 22.63248 113.80204 9 ft 0 kts 154°